This is the latest recevied weather packets stored in our database for station/object HB9TJM-8. If no packets are shown the sender has not sent any weather packets the latest 10 day(s).
| Time | Temp. | Humidity | Pressure | Rain* | Wind** | Luminosity | Snow |
|---|---|---|---|---|---|---|---|
| 1777807241 | 16.11° C | 53% | 1017 hPa | 0 mm | - | 262 W/m² | - |
| 1777806934 | 16.67° C | 52% | 1017.1 hPa | 0 mm | - | 243 W/m² | - |
| 1777806626 | 17.22° C | 54% | 1017.1 hPa | 0 mm | - | 345 W/m² | - |
| 1777806319 | 17.78° C | 49% | 1017.1 hPa | 0 mm | - | 999 W/m² | - |
| 1777806012 | 17.78° C | 52% | 1017.1 hPa | 0 mm | - | 391 W/m² | - |
| 1777805705 | 17.22° C | 50% | 1016.8 hPa | 0 mm | - | 350 W/m² | - |
| 1777805397 | 17.22° C | 52% | 1016.8 hPa | 0 mm | - | 517 W/m² | - |
| 1777805089 | 16.67° C | 52% | 1017 hPa | 0 mm | - | 373 W/m² | - |
| 1777804782 | 17.22° C | 55% | 1017.3 hPa | 0 mm | - | 422 W/m² | - |
| 1777804474 | 16.67° C | 56% | 1016.7 hPa | 0 mm | - | 577 W/m² | - |
| 1777804166 | 17.22° C | 53% | 1017.4 hPa | 0 mm | - | 293 W/m² | - |
| 1777803859 | 17.22° C | 54% | 1017.3 hPa | 0 mm | - | 439 W/m² | - |
| 1777803551 | 17.78° C | 53% | 1016.8 hPa | 0 mm | - | 450 W/m² | - |
| 1777803243 | 17.22° C | 51% | 1017.3 hPa | 0 mm | - | 923 W/m² | - |
| 1777802936 | 16.67° C | 54% | 1017.5 hPa | 0 mm | - | 709 W/m² | - |
| 1777802629 | 16.67° C | 53% | 1017.3 hPa | 0 mm | - | 667 W/m² | - |
| 1777802321 | 16.67° C | 52% | 1017 hPa | 0 mm | - | 359 W/m² | - |
| 1777802013 | 16.67° C | 55% | 1017.5 hPa | 0 mm | - | 373 W/m² | - |
| 1777801705 | 16.11° C | 53% | 1017.2 hPa | 0 mm | - | 385 W/m² | - |
| 1777801090 | 16.11° C | 57% | 1017.1 hPa | 0 mm | - | 358 W/m² | - |
| 1777800782 | 16.67° C | 52% | 1017 hPa | 0 mm | - | 353 W/m² | - |
| 1777800474 | 16.67° C | 53% | 1017.3 hPa | 0 mm | - | 602 W/m² | - |
| 1777800167 | 16.67° C | 53% | 1017 hPa | 0 mm | - | 352 W/m² | - |
| 1777799859 | 17.22° C | 51% | 1016.8 hPa | 0 mm | - | 806 W/m² | - |
| 1777799552 | 16.67° C | 52% | 1016.9 hPa | 0 mm | - | 659 W/m² | - |
* Rain latest hour (hover to see other rain measurements)
** Current wind speed in m/s (hover to see current wind gust speed)